Skip Page Navigation
NASA JPL Caltech
NASA Logo - Jet Propulsion Laboratory + View the NASA Portal
+ Near-Earth Object (NEO) Program
Search JPL
JPL Home Earth Solar System Stars & Galaxies Technology
JPL Solar System Dynamics
BODIES ORBITS EPHEMERIDES TOOLS PHYSICAL DATA DISCOVERY FAQ SITE MAP
JPL Small-Body Database Browser
Search: [ help ]  
597 Bandusia (1906 UB)
Classification: Main-belt Asteroid          SPK-ID: 2000597
Ephemeris | Orbit Diagram | Orbital Elements | Physical Parameters | Discovery Circumstances ]

[ hide orbit diagram ]
Orbit Diagram
Note: Make sure you have Java enabled on your browser to see the applet. This applet is provided as a 3D orbit visualization tool. The applet was implemented using 2-body methods, and hence should not be used for determining accurate long-term trajectories (over several years or decades) or planetary encounter circumstances. For accurate long-term ephemerides, please instead use our Horizons system.
Orbit Viewer

Additional Notes: the orbits shown in the applet are color coded. The planets are white lines, and the asteroid/comet is a blue line. The bright white line indicates the portion of the orbit that is above the ecliptic plane, and the darker portion is below the ecliptic plane. Likewise for the asteroid/comet orbit, the light blue indicates the portion above the ecliptic plane, and the dark blue the portion below the ecliptic plane.

Orbit Viewer applet originally written and kindly provided by Osamu Ajiki (AstroArts), and further modified by Ron Baalke (JPL).


Orbital Elements at Epoch 2456400.5 (2013-Apr-18.0) TDB
Reference: MPO256865 (heliocentric ecliptic J2000)
 Element Value Uncertainty (1-sigma)   Units 
e 0.1426767 n/a  
a 2.6735197 n/a AU
q 2.2920707 n/a AU
i 12.80875 n/a deg
node 36.69325 n/a deg
peri 307.61405 n/a deg
M 66.47147 n/a deg
tp 2456105.6804465
(2012-Jun-27.18044650)
n/a JED
period 1596.7006487
4.37
n/a
n/a
d
yr
n 0.22546493 n/a deg/d
Q 3.0549687 n/a AU
  Orbit Determination Parameters
   # obs. used (total)      931  
   first obs. used      1916-??-??  
   last obs. used      2013-03-01  
   # oppositions      34  
   planetary ephem.      DE403  
   condition code      0  
   fit RMS      0.55  
   data source      MPC:mpn  
   producer      MPCLINUX  

Additional Information
 T_jup = 3.330 

Ephemeris | Orbit Diagram | Orbital Elements | Physical Parameters | Discovery Circumstances ]

Physical Parameter Table
Parameter Symbol Value Units Sigma Reference Notes
absolute magnitude H 9.40 mag n/a IRAS-A-FPA-3-RDR-IMPS-V6.0 IRAS observations used: 16
diameter diameter 36.06 km 3.5 IRAS-A-FPA-3-RDR-IMPS-V6.0 IRAS observations used: 16
rotation period rot_per 11.50 h n/a Asteroid Lightcurve DataBase (Rev. 2013-May-01) Result based on less than full coverage, so that the period may be wrong by 30 percent or so.
Published Reference List:
[Behrend, R. (2002) Observatoire de Geneve web site, http://obswww.unige.ch/~behrend/page_cou.html]
geometric albedo albedo 0.2361   0.053 IRAS-A-FPA-3-RDR-IMPS-V6.0 IRAS observations used: 16
SMASSII spectral type spec_B S   n/a EAR-A-5-DDR-TAXONOMY-V4.0 based on a high-resolution spectrum by Xu et al. (1995) or Bus and Binzel (2002)

597 Bandusia (1906 UB)          Discovered 1906-Apr-16 by Wolf, M. at Heidelberg (024)
Reference: DISCOVERY.DBLast Updated: 2003-08-29

Alternate Designations
 1906 UB = 1938 YC = 1950 KK = 1958 HJ = A924 MA 
Ephemeris | Orbit Diagram | Orbital Elements | Physical Parameters | Discovery Circumstances ]
ABOUT SSD CREDITS/AWARDS PRIVACY/COPYRIGHT GLOSSARY LINKS
FirstGov 2013-May-24 09:38 UT
(server date/time)  
NASA Home Page
Site Manager:   Donald K. Yeomans
Webmaster  Alan B. Chamberlin